FW4212 Weather Reports


Display with metric or nautical units.
time (UTC)temp
F
wind
direction
speed
MPH
gust
MPH
rain 1hr
in
rain 24hr
in
rain mn
in
humidity
%
barometer
mb
20260510183057 81 121 1.0 7.0 0.00 0.00 0.00 33 1016.5
20260510182558 80 251 0.0 7.0 0.00 0.00 0.00 33 1016.5
20260510182056 81 123 2.0 6.0 0.00 0.00 0.00 27 1016.6
20260510181607 81 263 1.0 7.0 0.00 0.00 0.00 31 1016.5
20260510181056 81 216 2.0 6.0 0.00 0.00 0.00 28 1016.8
20260510180555 79 146 2.0 6.0 0.00 0.00 0.00 27 1016.7
20260510180100 79 167 1.0 3.0 0.00 0.00 0.00 25 1016.8
20260510175554 79 295 0.0 7.0 0.00 0.00 0.00 26 1016.8
20260510175055 80 271 2.0 8.0 0.00 0.00 0.00 31 1016.8
20260510174554 79 116 3.0 8.0 0.00 0.00 0.00 24 1016.9
20260510174057 79 220 3.0 8.0 0.00 0.00 0.00 25 1016.8
20260510173552 79 218 1.0 7.0 0.00 0.00 0.00 28 1016.9
20260510173053 79 163 1.0 7.0 0.00 0.00 0.00 25 1017.0
20260510172552 79 278 1.0 7.0 0.00 0.00 0.00 29 1017.2
20260510172054 79 38 1.0 5.0 0.00 0.00 0.00 26 1017.1
20260510171558 79 222 1.0 6.0 0.00 0.00 0.00 27 1017.3
20260510171051 79 198 2.0 6.0 0.00 0.00 0.00 26 1017.3
20260510170551 78 103 1.0 5.0 0.00 0.00 0.00 27 1017.3
20260510170117 79 202 2.0 6.0 0.00 0.00 0.00 25 1017.3
20260510165551 79 220 2.0 6.0 0.00 0.00 0.00 29 1017.5
20260510165051 79 275 1.0 5.0 0.00 0.00 0.00 29 1017.3
20260510164602 78 310 2.0 6.0 0.00 0.00 0.00 28 1017.3
20260510164050 78 57 0.0 3.0 0.00 0.00 0.00 35 1017.3
20260510163548 78 316 1.0 7.0 0.00 0.00 0.00 36 1017.4
20260510163048 78 232 2.0 7.0 0.00 0.00 0.00 32 1017.4
20260510162546 77 83 2.0 5.0 0.00 0.00 0.00 33 1017.4
20260510162046 78 300 1.0 5.0 0.00 0.00 0.00 38 1017.4
20260510161546 77 45 1.0 3.0 0.00 0.00 0.00 30 1017.5
20260510161045 77 355 1.0 4.0 0.00 0.00 0.00 44 1017.6
20260510160547 75 72 0.0 4.0 0.00 0.00 0.00 37 1017.6
20260510160044 76 181 2.0 4.0 0.00 0.00 0.00 36 1017.6
20260510155543 77 82 0.0 4.0 0.00 0.00 0.00 42 1017.7
20260510155043 76 182 0.0 4.0 0.00 0.00 0.00 43 1017.7
20260510154544 75 263 1.0 4.0 0.00 0.00 0.00 38 1017.6
20260510154041 76 225 2.0 4.0 0.00 0.00 0.00 39 1017.7
20260510153542 76 219 1.0 4.0 0.00 0.00 0.00 43 1017.7
20260510153050 76 60 1.0 7.0 0.00 0.00 0.00 42 1017.7
20260510152542 75 284 1.0 7.0 0.00 0.00 0.00 39 1017.7
20260510152040 75 252 0.0 4.0 0.00 0.00 0.00 47 1017.7
20260510151540 75 266 0.0 2.0 0.00 0.00 0.00 43 1017.8
20260510151040 74 88 0.0 4.0 0.00 0.00 0.00 43 1017.8
20260510150539 74 59 1.0 4.0 0.00 0.00 0.00 42 1017.8
20260510150038 74 259 1.0 4.0 0.00 0.00 0.00 42 1017.8
20260510145536 74 323 0.0 3.0 0.00 0.00 0.00 45 1017.8
20260510145036 73 284 0.0 4.0 0.00 0.00 0.00 47 1017.8
20260510144536 73 261 0.0 2.0 0.00 0.00 0.00 45 1017.8
20260510144038 73 89 0.0 2.0 0.00 0.00 0.00 49 1017.7
20260510143534 73 303 0.0 3.0 0.00 0.00 0.00 48 1017.7
20260510143035 73 55 0.0 4.0 0.00 0.00 0.00 52 1017.7
20260510142532 72 38 1.0 4.0 0.00 0.00 0.00 51 1017.7
20260510142032 71 294 0.0 1.0 0.00 0.00 0.00 49 1017.7
20260510141536 72 248 0.0 3.0 0.00 0.00 0.00 50 1017.7
20260510141029 71 273 0.0 3.0 0.00 0.00 0.00 56 1017.7
20260510140529 70 269 1.0 3.0 0.00 0.00 0.00 58 1017.7
20260510140028 70 232 0.0 4.0 0.00 0.00 0.00 62 1017.8
20260510135528 69 194 1.0 4.0 0.00 0.00 0.00 57 1017.9
20260510135027 70 229 0.0 3.0 0.00 0.00 0.00 63 1017.9
20260510134526 70 243 0.0 2.0 0.00 0.00 0.00 61 1017.8
20260510134025 69 209 0.0 2.0 0.00 0.00 0.00 66 1017.8
20260510133524 69 284 0.0 2.0 0.00 0.00 0.00 68 1017.8
20260510133023 68 267 0.0 1.0 0.00 0.00 0.00 69 1017.7
20260510132522 68 255 0.0 2.0 0.00 0.00 0.00 69 1017.7
20260510132021 67 197 0.0 2.0 0.00 0.00 0.00 74 1017.8
20260510131520 66 271 0.0 2.0 0.00 0.00 0.00 76 1017.8
20260510131018 65 236 0.0 1.0 0.00 0.00 0.00 77 1017.8
20260510130518 65 221 0.0 0.0 0.00 0.00 0.00 80 1017.7
20260510130035 64 263 0.0 3.0 0.00 0.00 0.00 83 1017.6
20260510125515 63 211 0.0 3.0 0.00 0.00 0.00 85 1017.5
20260510125017 63 207 0.0 0.0 0.00 0.00 0.00 86 1017.5
20260510124511 63 228 0.0 2.0 0.00 0.00 0.00 86 1017.5
20260510124010 62 228 0.0 2.0 0.00 0.00 0.00 88 1017.6
20260510123509 61 311 0.0 0.0 0.00 0.00 0.00 91 1017.5
20260510123007 60 311 0.0 0.0 0.00 0.00 0.00 92 1017.5
20260510122507 60 311 0.0 0.0 0.00 0.00 0.00 94 1017.5
20260510122008 58 311 0.0 0.0 0.00 0.00 0.00 96 1017.4
20260510121506 57 311 0.0 0.0 0.00 0.00 0.00 96 1017.3
20260510121006 57 311 0.0 0.0 0.00 0.00 0.00 97 1017.3
20260510120506 56 311 0.0 0.0 0.00 0.00 0.00 97 1017.3
20260510120023 55 311 0.0 0.0 0.00 0.00 0.00 97 1017.2
20260510115506 54 311 0.0 0.0 0.00 0.00 0.00 97 1017.1
20260510115004 54 311 0.0 0.0 0.00 0.00 0.00 97 1017.1
20260510114512 53 311 0.0 0.0 0.00 0.00 0.00 97 1017.1
20260510114003 53 311 0.0 0.0 0.00 0.00 0.00 97 1017.1
20260510113502 53 311 0.0 0.0 0.00 0.00 0.00 97 1017.0
20260510113001 52 311 0.0 0.0 0.00 0.00 0.00 97 1016.8
20260510112600 52 311 0.0 0.0 0.00 0.00 0.00 97 1016.6
20260510112103 51 311 0.0 0.0 0.00 0.00 0.00 97 1016.4
20260510111600 51 311 0.0 0.0 0.00 0.00 0.00 97 1016.5
20260510111059 51 311 0.0 0.0 0.00 0.00 0.00 97 1016.4
20260510110559 51 311 0.0 0.0 0.00 0.00 0.00 96 1016.3
20260510105558 50 311 0.0 0.0 0.00 0.00 0.00 96 1016.2
20260510105057 50 311 0.0 0.0 0.00 0.00 0.00 96 1016.1
20260510104559 50 311 0.0 0.0 0.00 0.00 0.00 96 1016.2
20260510104055 51 311 0.0 0.0 0.00 0.00 0.00 96 1016.1
20260510103556 51 311 0.0 0.0 0.00 0.00 0.00 96 1015.9
20260510103055 51 311 0.0 0.0 0.00 0.00 0.00 96 1015.8
20260510102554 51 311 0.0 0.0 0.00 0.00 0.00 97 1015.8
20260510102054 50 311 0.0 0.0 0.00 0.00 0.00 96 1015.7
20260510101554 50 311 0.0 0.0 0.00 0.00 0.00 96 1015.8
20260510101052 51 311 0.0 0.0 0.00 0.00 0.00 96 1015.7
20260510100552 51 311 0.0 0.0 0.00 0.00 0.00 96 1015.5
20260510100054 50 311 0.0 0.0 0.00 0.00 0.00 96 1015.4
20260510095551 51 311 0.0 0.0 0.00 0.00 0.00 96 1015.3
20260510095050 51 311 0.0 0.0 0.00 0.00 0.00 96 1015.2
20260510094550 51 311 0.0 0.0 0.00 0.00 0.00 96 1015.1
20260510094049 51 311 0.0 0.0 0.00 0.00 0.00 96 1015.2
20260510093548 51 311 0.0 0.0 0.00 0.00 0.00 96 1015.0
20260510093053 51 311 0.0 0.0 0.00 0.00 0.00 96 1015.1
20260510092547 51 311 0.0 0.0 0.00 0.00 0.00 96 1015.0
20260510092046 51 311 0.0 0.0 0.00 0.00 0.00 96 1014.9
20260510091545 52 311 0.0 0.0 0.00 0.00 0.00 96 1014.9
20260510091044 52 311 0.0 0.0 0.00 0.00 0.00 96 1014.9
20260510090547 52 311 0.0 0.0 0.00 0.00 0.00 96 1014.8
20260510090046 52 311 0.0 0.0 0.00 0.00 0.00 96 1014.8
20260510085542 52 311 0.0 0.0 0.00 0.00 0.00 96 1014.7
20260510085044 52 311 0.0 0.0 0.00 0.00 0.00 96 1014.7
20260510084541 52 311 0.0 0.0 0.00 0.00 0.00 95 1014.7
20260510084040 52 311 0.0 0.0 0.00 0.00 0.00 96 1014.7
20260510083539 53 311 0.0 0.0 0.00 0.00 0.00 96 1014.6
20260510083052 53 311 0.0 0.0 0.00 0.00 0.00 96 1014.4
20260510082537 53 311 0.0 0.0 0.00 0.00 0.00 96 1014.4
20260510082037 54 311 0.0 0.0 0.00 0.00 0.00 96 1014.4
20260510081537 54 311 0.0 0.0 0.00 0.00 0.00 96 1014.4
20260510081037 54 311 0.0 0.0 0.00 0.00 0.00 96 1014.3
20260510080536 53 311 0.0 0.0 0.00 0.00 0.00 96 1014.2
20260510080035 54 311 0.0 0.0 0.00 0.00 0.00 95 1014.2
20260510075535 54 311 0.0 0.0 0.00 0.00 0.00 96 1014.2
20260510075034 54 311 0.0 0.0 0.00 0.00 0.00 96 1014.1
20260510074533 54 311 0.0 0.0 0.00 0.00 0.00 95 1014.1
20260510074034 54 311 0.0 0.0 0.00 0.00 0.00 95 1014.0
20260510073532 55 311 0.0 0.0 0.00 0.00 0.00 95 1014.0
20260510073032 55 311 0.0 0.0 0.00 0.00 0.00 95 1014.0
20260510072531 55 311 0.0 0.0 0.00 0.00 0.00 95 1014.0
20260510072031 55 311 0.0 0.0 0.00 0.00 0.00 95 1013.9
20260510071531 55 311 0.0 0.0 0.00 0.00 0.00 95 1013.8
20260510071030 55 311 0.0 0.0 0.00 0.00 0.00 95 1013.9
20260510070529 56 311 0.0 0.0 0.00 0.00 0.00 95 1013.8
20260510070033 56 311 0.0 0.0 0.00 0.00 0.00 95 1013.8
20260510065528 56 311 0.0 0.0 0.00 0.00 0.00 95 1013.7
20260510065030 56 311 0.0 0.0 0.00 0.00 0.00 95 1013.8
20260510064533 56 311 0.0 0.0 0.00 0.00 0.00 95 1013.7
20260510064027 56 311 0.0 0.0 0.00 0.00 0.00 95 1013.7
20260510063526 56 311 0.0 0.0 0.00 0.00 0.00 95 1013.7
20260510063028 56 311 0.0 0.0 0.00 0.00 0.00 95 1013.9
20260510062526 56 311 0.0 0.0 0.00 0.00 0.00 95 1014.0
20260510062025 56 311 0.0 0.0 0.00 0.00 0.00 94 1013.9
20260510061525 56 311 0.0 0.0 0.00 0.00 0.00 94 1013.9
20260510061024 57 311 0.0 0.0 0.00 0.00 0.00 94 1014.0
20260510060526 57 311 0.0 0.0 0.00 0.00 0.00 94 1014.0
20260510060023 57 311 0.0 0.0 0.00 0.00 0.00 94 1014.1
20260510055524 57 311 0.0 0.0 0.00 0.00 0.00 94 1014.1
20260510055022 57 311 0.0 0.0 0.00 0.00 0.00 94 1014.2
20260510054521 57 311 0.0 0.0 0.00 0.00 0.00 94 1014.1
20260510054022 57 311 0.0 0.0 0.00 0.00 0.00 94 1014.1
20260510053521 57 311 0.0 0.0 0.00 0.00 0.00 93 1014.2
20260510053024 58 311 0.0 0.0 0.00 0.00 0.00 93 1014.2
20260510052519 58 311 0.0 0.0 0.00 0.00 0.00 93 1014.2
20260510052019 58 311 0.0 0.0 0.00 0.00 0.00 93 1014.2
20260510051518 58 311 0.0 0.0 0.00 0.00 0.00 93 1014.2
20260510051017 59 311 0.0 0.0 0.00 0.00 0.00 93 1014.3
20260510050517 58 311 0.0 0.0 0.00 0.00 0.00 93 1014.3
20260510050017 58 311 0.0 0.0 0.00 0.00 0.00 93 1014.3
20260510045519 58 311 0.0 0.0 0.00 0.00 0.00 93 1014.3
20260510045018 58 311 0.0 0.0 0.00 0.00 0.00 93 1014.3
20260510044519 58 311 0.0 2.0 0.00 0.00 0.00 93 1014.3
20260510044016 58 311 0.0 2.0 0.00 0.00 0.00 92 1014.3
20260510043516 59 311 0.0 0.0 0.00 0.00 0.00 93 1014.2
20260510043017 58 311 0.0 0.0 0.00 0.00 0.00 92 1014.1
20260510042513 59 311 0.0 0.0 0.00 0.00 0.00 91 1014.3
20260510042017 59 311 0.0 0.0 0.00 0.00 0.00 91 1014.3
20260510041516 59 311 0.0 0.0 0.00 0.00 0.00 91 1014.2
20260510041011 59 311 0.0 0.0 0.00 0.00 0.00 91 1014.3
20260510040511 60 311 0.0 0.0 0.00 0.00 0.00 91 1014.4
20260510040010 60 311 0.0 0.0 0.00 0.00 0.00 91 1014.3
20260510035509 60 311 0.0 0.0 0.00 0.00 0.00 91 1014.4
20260510035009 60 311 0.0 0.0 0.00 0.00 0.00 91 1014.4
20260510034516 60 311 0.0 0.0 0.00 0.00 0.00 91 1014.2
20260510034009 60 311 0.0 0.0 0.00 0.00 0.00 91 1014.1
20260510033512 60 311 0.0 0.0 0.00 0.00 0.00 91 1014.3
20260510033011 60 311 0.0 0.0 0.00 0.00 0.00 91 1014.2
20260510032508 60 311 0.0 0.0 0.00 0.00 0.00 91 1014.2
20260510032009 60 311 0.0 0.0 0.00 0.00 0.00 91 1014.3
20260510031508 60 311 0.0 0.0 0.00 0.00 0.00 91 1014.2
20260510031007 60 311 0.0 0.0 0.00 0.00 0.00 91 1014.2
20260510030508 60 311 0.0 0.0 0.00 0.00 0.00 90 1014.3
20260510030011 60 311 0.0 0.0 0.00 0.00 0.00 90 1014.3
20260510025507 61 311 0.0 0.0 0.00 0.00 0.00 90 1014.2
20260510025107 60 311 0.0 0.0 0.00 0.00 0.00 90 1014.2
20260510024506 60 311 0.0 0.0 0.00 0.00 0.00 90 1014.3
20260510024006 61 311 0.0 0.0 0.00 0.00 0.00 90 1014.2
20260510023510 61 311 0.0 0.0 0.00 0.00 0.00 90 1014.2
20260510023007 61 311 0.0 0.0 0.00 0.00 0.00 90 1014.1
20260510022506 61 311 0.0 0.0 0.00 0.00 0.00 90 1014.1
20260510022006 61 311 0.0 0.0 0.00 0.00 0.00 89 1014.1
20260510021516 61 311 0.0 0.0 0.00 0.00 0.00 89 1013.9
20260510021006 61 311 0.0 0.0 0.00 0.00 0.00 88 1013.8
20260510020507 61 311 0.0 0.0 0.00 0.00 0.00 89 1013.9
20260510020006 61 311 0.0 0.0 0.00 0.00 0.00 88 1013.8
20260510015505 61 311 0.0 0.0 0.00 0.00 0.00 88 1013.7
20260510015005 62 311 0.0 0.0 0.00 0.00 0.00 87 1013.6
20260510014505 62 311 0.0 0.0 0.00 0.00 0.00 87 1013.3
20260510014005 62 311 0.0 0.0 0.00 0.00 0.00 86 1013.3
20260510013505 62 311 0.0 0.0 0.00 0.00 0.00 86 1013.3
20260510013007 62 311 0.0 0.0 0.00 0.00 0.00 86 1013.2
20260510012504 62 311 0.0 0.0 0.00 0.00 0.00 85 1013.3
20260510012004 63 311 0.0 0.0 0.00 0.00 0.00 85 1013.2
20260510011508 63 311 0.0 0.0 0.00 0.00 0.00 84 1013.2
20260510011004 63 311 0.0 0.0 0.00 0.00 0.00 84 1013.1
20260510010504 63 311 0.0 0.0 0.00 0.00 0.00 83 1012.9
20260510010004 64 311 0.0 0.0 0.00 0.00 0.00 83 1012.9
20260510005504 64 311 0.0 0.0 0.00 0.00 0.00 81 1012.9
20260510005004 65 311 0.0 0.0 0.00 0.00 0.00 80 1012.8
20260510004503 65 311 0.0 0.0 0.00 0.00 0.00 80 1012.7
20260510004003 65 311 0.0 0.0 0.00 0.00 0.00 80 1012.5
20260510003503 65 311 0.0 0.0 0.00 0.00 0.00 79 1012.5
20260510003003 66 311 0.0 0.0 0.00 0.00 0.00 79 1012.3
20260510002503 66 311 0.0 0.0 0.00 0.00 0.00 78 1012.2
20260510002002 67 311 0.0 0.0 0.00 0.00 0.00 77 1012.1
20260510001503 67 311 0.0 0.0 0.00 0.00 0.00 77 1012.0
20260510001004 67 311 0.0 0.0 0.00 0.00 0.00 76 1012.0
20260510000503 67 311 0.0 0.0 0.00 0.00 0.00 75 1011.9
20260510000006 68 311 0.0 0.0 0.00 0.00 0.00 75 1011.8
20260509235502 68 311 0.0 2.0 0.00 0.00 0.00 74 1011.8
20260509235003 68 232 0.0 2.0 0.00 0.00 0.00 73 1011.8
20260509234506 69 213 0.0 0.0 0.00 0.00 0.00 73 1011.8
20260509234001 69 213 0.0 0.0 0.00 0.00 0.00 72 1011.6
20260509233502 69 237 0.0 1.0 0.00 0.00 0.00 72 1011.7
20260509233003 70 238 0.0 4.0 0.00 0.00 0.00 71 1011.6
20260509232502 70 242 0.0 4.0 0.00 0.00 0.00 71 1011.6
20260509232002 70 225 0.0 4.0 0.00 0.00 0.00 71 1011.5
20260509231500 70 209 0.0 4.0 0.00 0.00 0.00 70 1011.5
20260509231001 70 215 0.0 4.0 0.00 0.00 0.00 69 1011.7
20260509230601 70 215 0.0 4.0 0.00 0.00 0.00 70 1011.6
20260509230105 70 128 0.0 3.0 0.00 0.00 0.00 69 1011.5
20260509225600 71 97 1.0 4.0 0.00 0.00 0.00 69 1011.3
20260509225100 71 115 1.0 4.0 0.00 0.00 0.00 68 1011.2
20260509224603 71 221 0.0 5.0 0.00 0.00 0.00 69 1011.3
20260509224102 71 205 1.0 5.0 0.00 0.00 0.00 68 1011.3
20260509223559 71 224 2.0 5.0 0.00 0.00 0.00 68 1011.3
20260509223104 71 78 1.0 5.0 0.00 0.00 0.00 69 1011.2
20260509222603 71 225 0.0 5.0 0.00 0.00 0.00 68 1011.3
20260509222059 71 123 1.0 3.0 0.00 0.00 0.00 68 1011.2
20260509221558 71 182 0.0 6.0 0.00 0.00 0.00 68 1011.1
20260509221059 71 201 2.0 6.0 0.00 0.00 0.00 67 1010.9
20260509220557 71 215 1.0 6.0 0.00 0.00 0.00 67 1010.9
20260509220058 71 127 0.0 6.0 0.00 0.00 0.00 67 1010.8
20260509215558 71 134 0.0 4.0 0.00 0.00 0.00 67 1010.8
20260509215058 72 144 0.0 3.0 0.00 0.00 0.00 66 1010.8
20260509214557 72 113 0.0 6.0 0.00 0.00 0.00 66 1010.8
20260509214101 72 205 1.0 6.0 0.00 0.00 0.00 65 1010.8
20260509213557 72 123 1.0 6.0 0.00 0.00 0.00 64 1010.8
20260509213059 73 233 1.0 8.0 0.00 0.00 0.00 65 1010.7
20260509212557 72 114 2.0 7.0 0.00 0.00 0.00 65 1010.6
20260509212057 72 90 1.0 7.0 0.00 0.00 0.00 65 1010.7
20260509211557 72 118 1.0 7.0 0.00 0.00 0.00 66 1010.5
20260509211056 72 253 0.0 8.0 0.00 0.00 0.00 66 1010.6
20260509210556 72 167 2.0 8.0 0.00 0.00 0.00 65 1010.5
20260509210156 72 107 2.0 4.0 0.00 0.00 0.00 66 1010.5
20260509205555 72 131 1.0 8.0 0.00 0.00 0.00 66 1010.6
20260509205055 72 202 1.0 8.0 0.00 0.00 0.00 66 1010.6
20260509204601 72 111 0.0 5.0 0.00 0.00 0.00 64 1010.6
20260509204055 73 229 1.0 4.0 0.00 0.00 0.00 63 1010.6
20260509203555 73 199 1.0 6.0 0.00 0.00 0.00 63 1010.4
20260509203105 73 182 2.0 6.0 0.00 0.00 0.00 64 1010.6
20260509202554 72 111 1.0 6.0 0.00 0.00 0.00 66 1010.4
20260509202054 72 228 2.0 5.0 0.00 0.00 0.00 64 1010.3
20260509201554 72 210 0.0 9.0 0.00 0.00 0.00 64 1010.4
20260509201054 73 159 3.0 9.0 0.00 0.00 0.00 62 1010.4
20260509200552 73 72 2.0 5.0 0.00 0.00 0.00 61 1010.4
20260509200051 74 250 2.0 7.0 0.00 0.00 0.00 58 1010.7
20260509195553 75 144 3.0 7.0 0.00 0.00 0.00 59 1010.8
20260509195050 75 175 1.0 5.0 0.00 0.00 0.00 57 1010.9
20260509194551 76 211 1.0 4.0 0.00 0.00 0.00 56 1010.9
20260509194053 75 190 1.0 5.0 0.00 0.00 0.00 58 1010.7
20260509193549 75 240 1.0 8.0 0.00 0.00 0.00 55 1010.7
20260509193048 75 157 1.0 10.0 0.00 0.00 0.00 55 1010.7
20260509192548 74 130 4.0 10.0 0.00 0.00 0.00 60 1010.8
20260509192046 74 119 1.0 8.0 0.00 0.00 0.00 61 1010.9
20260509191546 74 113 0.0 8.0 0.00 0.00 0.00 62 1010.9
20260509191509 74 131 1.0 8.0 0.00 0.00 0.00 61 1010.8
20260509191045 73 192 1.0 9.0 0.00 0.00 0.00 63 1010.9
20260509190543 72 69 5.0 9.0 0.00 0.00 0.00 62 1010.9
20260509190042 72 80 3.0 8.0 0.00 0.00 0.00 61 1011.1
20260509185542 73 78 1.0 8.0 0.00 0.00 0.00 63 1011.1
20260509185042 74 128 3.0 8.0 0.00 0.00 0.00 61 1011.2
20260509184546 74 188 2.0 7.0 0.00 0.00 0.00 60 1011.1
20260509184040 73 75 2.0 10.0 0.00 0.00 0.00 58 1011.3
20260509183539 74 244 2.0 10.0 0.00 0.00 0.00 59 1011.3